Back to catalog

STARLINK-35969

AliveCommunicationsVLEO
NORAD 66523·PAYLOAD·🇺🇸 United States

Launched Nov 19, 2025 from Cape Canaveral Space Force Station

Loading…

Next Passes (next 24 hours)

TLE

FreshSource: CelesTrak SupGP

Epoch: Sep 14, 2026, 23:05 UTC

1 66523C 25265H   26257.96229167  .00029764  00000+0  10780-2 0  2578
2 66523  43.0002 288.9636 0001487 268.3115 353.1109 15.27563975    14

Track STARLINK-35969 in real time with AllMySat

Download on the App Store